Home   Weather   Katowice   Past weeks

Flag for Poland Past Weather in Katowice, Poland — Yesterday and Last 2 Weeks

Now
59 °F

Clear.


Feels Like: 58 °F
Forecast: 52 / 72 °F
Wind: 6 mph from Southwest

Location: Katowice Airport

Current Time: Sep 30, 2016 at 7:06:25 AM

Latest Report: Sep 30, 2016 at 6:30 AM


Visibility: 10 mi

Pressure: 29.98 "Hg

Humidity: 72%

Dew Point: 50 °F

Location of KatowiceLocation

Past Weather in Katowice — Graph

°F

Katowice Temperature Yesterday

Maximum temperature yesterday: 72 °F (at 1:00 PM)
Minimum temperature yesterday: 59 °F (at 12:00 AM)
Average temperature yesterday: 65 °F

High & Low Weather Summary for the Past Weeks

 TemperatureHumidityPressure
High81 °F (Sep 16, 1:30 PM)100% (Sep 15, 6:00 AM)30.36 "Hg (Sep 15, 6:00 AM)
Low32 °F (Sep 22, 6:00 AM)37% (Sep 16, 2:00 PM)29.83 "Hg (Sep 17, 5:00 AM)
Average54 °F81%30.10 "Hg
* Reported Sep 15 6:00 AM — Sep 30 6:00 AM, Katowice, Weather by CustomWeather, © 2016

Note: Actual official high and low records may vary slightly from our data, if they occured in-between our weather recording intervals... More about our weather records

Advertising

Katowice Weather History for the Previous 24 Hours

Scroll right to see more
 ConditionsComfort  
Time TempWeatherWind HumidityBarometerVisibility
6:00 AM
Fri, Sep 30
59 °FClear.8 mph77%29.98 "Hg10 mi
5:30 AM59 °FClear.10 mph77%29.98 "Hg10 mi
5:00 AM61 °FClear.13 mph72%29.95 "Hg10 mi
4:30 AM61 °FClear.13 mph68%29.95 "Hg10 mi
4:00 AM61 °FClear.14 mph68%29.98 "Hg10 mi
3:30 AM63 °FClear.14 mph64%29.98 "Hg10 mi
3:00 AM61 °FClear.13 mph68%29.98 "Hg10 mi
2:30 AM63 °FClear.12 mph64%29.98 "Hg10 mi
2:00 AM63 °FClear.14 mph64%29.98 "Hg10 mi
1:30 AM61 °FPassing clouds.5 mph68%29.98 "HgN/A
1:00 AM61 °FPassing clouds.6 mph68%29.98 "HgN/A
12:30 AM61 °FClear.7 mph68%29.98 "Hg10 mi
12:00 AM63 °FPassing clouds.8 mph64%30.01 "HgN/A
11:30 PM
Thu, Sep 29
63 °FClear.9 mph64%30.01 "Hg10 mi
11:00 PM63 °FPassing clouds.7 mph64%30.01 "HgN/A
10:30 PM63 °FClear.8 mph64%30.01 "Hg10 mi
10:00 PM63 °FClear.6 mph64%30.01 "Hg10 mi
9:30 PM64 °FClear.8 mph60%30.01 "Hg10 mi
9:00 PM64 °FClear.10 mph60%30.01 "Hg10 mi
8:30 PM66 °FClear.10 mph52%30.01 "Hg10 mi
8:00 PM66 °FClear.12 mph52%30.04 "Hg10 mi
7:30 PM66 °FClear.9 mph56%30.04 "Hg10 mi
7:00 PM66 °FClear.8 mph56%30.04 "Hg10 mi
6:30 PM66 °FClear.7 mph56%30.04 "Hg10 mi
6:00 PM68 °FSunny.13 mph53%30.04 "Hg10 mi
5:30 PM70 °FSunny.13 mph50%30.04 "Hg10 mi
5:00 PM72 °FSunny.14 mph50%30.04 "Hg10 mi
4:30 PM72 °FSunny.10 mph50%30.07 "Hg10 mi
4:00 PM72 °FSunny.14 mph50%30.07 "Hg10 mi
3:30 PM72 °FSunny.14 mph50%30.07 "Hg10 mi
3:00 PM72 °FPassing clouds.14 mph50%30.09 "HgN/A
2:30 PM72 °FSunny.14 mph53%30.09 "Hg10 mi
2:00 PM72 °FSunny.14 mph50%30.09 "Hg10 mi
1:30 PM72 °FSunny.15 mph47%30.09 "Hg10 mi
1:00 PM72 °FPassing clouds.14 mph47%30.12 "HgN/A
12:30 PM70 °FSunny.14 mph50%30.12 "Hg10 mi
12:00 PM70 °FSunny.14 mph50%30.12 "Hg10 mi
11:30 AM70 °FSunny.14 mph50%30.15 "Hg10 mi
11:00 AM68 °FSunny.14 mph53%30.15 "Hg10 mi
10:30 AM66 °FSunny.14 mph56%30.15 "Hg10 mi
10:00 AM64 °FPassing clouds.13 mph60%30.18 "HgN/A
9:30 AM63 °FPartly sunny.10 mph64%30.18 "HgN/A
9:00 AM63 °FPartly sunny.9 mph64%30.18 "HgN/A
8:30 AM61 °FPartly sunny.9 mph68%30.18 "HgN/A
8:00 AM61 °FPartly sunny.8 mph68%30.18 "HgN/A
7:30 AM61 °FPartly sunny.8 mph68%30.18 "HgN/A
7:00 AM59 °FPartly sunny.9 mph72%30.18 "HgN/A
Weather by CustomWeather, © 2016

See weather overviewHow to use our weather pages